Powrót do katalogu

IGS O-7

AktywnyMilitariaSSO
NORAD 45165·PAYLOAD·🇯🇵 Japan

Wystrzelony Feb 9, 2020 z Tanegashima Space Center

Loading…

Następne Przeloty (najbliższe 24 godziny)

TLE

NieaktualneSource: Mike McCants

Epoka: Aug 28, 2026, 21:58 UTC

1 45165U 20009A   26240.91536982 0.00000000  00000-0  00000-0 0    02
2 45165  97.3343 314.6554 0006050 319.7024  40.2974 15.27649929    07

Śledź IGS O-7 w czasie rzeczywistym z AllMySat

Download on the App Store